www.pogodaiklimat.ru

Погода и климат >> Архив погоды >> Канада >> Grand Etang


ПОГОДА в Grand Etang

  • Прогноз погоды в Grand Etang
  • Монитор погоды в Grand Etang
  • Климат города

АРХИВ ПОГОДЫ в Grand Etang

Время (UTC), дата Ветер
(напр.,м/с)
 
Видим.   Явления Облачность Т
(С)
Тd
(С)
f
(%)
Тe
(С)
Тes
(С)
Комфортность P
(гПа)
Po
(гПа)
Тmin
(С)
Tmax
(С)
R
(мм)
S
(см)
15 14.02 СВ 3 8000 м дым ясно -38.8 -43.2 63 -49 -44 опасность
обморожения
1026.2 1019.4
18 14.02 В 3 6000 м дым ясно -37.7 -42.0 64 -49 -46 опасность
обморожения
1025.7 1018.9 -39.5 -37.3
21 14.02 ЮВ 3 6000 м дым ясно -36.8 -41.0 65 -47 -47 опасность
обморожения
1025.1 1018.3
00 15.02 ЮВ 3 4800 м дым ясно -37.6 -41.9 64 -49 -49 опасность
обморожения
1025.2 1018.4 -39.5 -36.4
03 15.02 В 4 6000 м дым ясно -38.0 -42.3 64 -50 -50 опасность
обморожения
1023.6 1016.8
06 15.02 ЮВ 4 6000 м дым ясно -38.1 -42.4 64 -51 -51 опасность
обморожения
1022.3 1015.6 -39.5 -36.4
09 15.02 ЮВ 5 6000 м дым ясно -37.0 -41.2 65 -51 -51 опасность
обморожения
1021.3 1014.6
12 15.02 ЮВ 7 6000 м дым ясно -34.0 -37.9 68 -50 -50 опасность
обморожения
1020.2 1013.5 -38.3 -36.4
15 15.02 ЮВ 9 3200 м дым ясно -32.2 -35.8 70 -49 -48 опасность
обморожения
1017.3 1010.6
18 15.02 ЮВ 9 2000 м дым 10/0
[]
-29.4 -32.7 73 -46 -45 опасность
обморожения
1014.7 1008.1 -38.3 -29.4
21 15.02 ЮВ 10 500 м снег н/о -25.7 -28.5 77 -41 -41 опасность
обморожения
1011.9 1005.3
00 16.02 ЮВ 12 1000 м в посл. час метель н/о -24.3 -26.8 80 -41 -41 опасность
обморожения
1008.2 1001.7 -38.1 -24.3
03 16.02 14 500 м в посл. час метель н/о -22.4 -24.7 81 1005.8 999.3
06 16.02 ЮВ 14 100 м в посл. час метель н/о -21.3 -23.5 82 -37 -37 опасность
обморожения
1002.5 996.1 -38.1 -21.2 0.8 6
09 16.02 Ю 13 100 м в посл. час метель {осадки} н/о -19.9 -22.0 83 -35 -35 опасность
обморожения
1000.6 994.2
12 16.02 Ю 14 100 м в посл. час метель {осадки} н/о -18.9 -20.8 85 -34 -34 опасность
обморожения
999.1 992.8 -24.3 -21.2 4
15 16.02 Ю 14 100 м в посл. час метель {осадки} н/о -18.9 -20.8 85 -34 -34 опасность
обморожения
998.3 992.0
18 16.02 Ю 12 100 м в посл. час метель {осадки} н/о -18.3 -20.2 85 -32 -32 опасность
обморожения
998.9 992.6 -29.4 -18.3 0.5
21 16.02 Ю 14 100 м в посл. час метель н/о -17.9 -19.7 86 -33 -33 опасность
обморожения
999.5 993.2
00 17.02 Ю 12 300 м в посл. час метель н/о -17.3 -19.0 87 -31 -31 опасность
обморожения
1000.0 993.7 -21.3 -17.3
03 17.02 Ю 11 500 м в посл. час метель н/о -17.1 -18.8 87 -30 -30 1001.7 995.4
06 17.02 ЮЗ 11 500 м в посл. час метель н/о -16.6 -18.3 87 -29 -29 1002.9 996.6 -21.3 -16.6 11
09 17.02 ЮЗ 10 1000 м слаб. снег н/о -16.4 -18.1 87 -29 -29 1004.8 998.5
12 17.02 ЮЗ 9 1200 м слаб. снег 10/10 200 м
[]
-16.3 -18.0 87 -28 -28 1006.1 999.8 -17.3 -16.6
15 17.02 ЮЗ 7 3600 м слаб. снег 10/10 200 м
[]
-16.6 -18.3 87 -27 -27 1007.7 1001.4
18 17.02 ЮЗ 8 6000 м слаб. снег 10/10 200 м
[]
-17.1 -18.8 87 -28 -28 1009.1 1002.8 -18.3 -16.2
21 17.02 ЮЗ 7 4800 м слаб. снег 10/10 600 м
[]
-16.5 -18.2 87 -27 -27 1010.1 1003.8
00 18.02 Ю 5 4800 м слаб. снег 9/9 300 м
[]
-17.7 -19.5 86 -27 -27 1011.2 1004.9 -17.7 -16.3
03 18.02 ЮВ 6 8000 м дымка ясно -20.4 -22.6 82 -32 -32 опасность
обморожения
1011.1 1004.7
06 18.02 Ю 5 9000 м дымка 10/10 1000 м
[]
-19.5 -21.4 85 -30 -30 1011.2 1004.8 -20.8 -16.2 7
09 18.02 Ю 4 9000 м дымка 10/10 1000 м
[]
-17.8 -19.6 86 -26 -26 1011.9 1005.6
12 18.02 Ю 5 8000 м слаб. снег 10/10 600 м
[]
-17.3 -19.0 87 -27 -27 1012.1 1005.8 -20.8 -16.2
15 18.02 Ю 6 3600 м слаб. снег {осадки} 10/10 1000 м
[]
-16.1 -17.7 87 -26 -26 1011.7 1005.3
18 18.02 Ю 9 1600 м слаб. снег 10/10 600 м
[]
-16.3 -18.0 87 -28 -28 1010.8 1004.5 -20.8 -15.8 0.3
21 18.02 ЮЗ 7 8000 м слаб. снег 10/10 1500 м
[]
-16.7 -18.4 87 -28 -28 1011.0 1004.7
00 19.02 ЮЗ 6 9000 м слаб. снег 10/10 1500 м
[]
-16.4 -18.1 87 -26 -26 1011.6 1005.3 -19.5 -15.8
03 19.02 ЮЗ 4 9000 м дымка 10/10 1500 м
[]
-15.8 -17.4 87 -24 -24 1011.9 1005.6
06 19.02 СЗ 6 2400 м дымка ясно -19.7 -21.6 85 -30 -30 1012.8 1006.4 -21.1 -15.7 18
09 19.02 СЗ 8 2800 м дымка 10/10 50 м
[]
-25.8 -28.6 77 -40 -40 опасность
обморожения
1014.9 1008.5
12 19.02 С 7 6000 м дым ясно -27.7 -30.7 75 -42 -42 опасность
обморожения
1016.3 1009.9 -27.7 -15.7
15 19.02 С 8 4800 м дым ясно -30.1 -33.3 74 -46 -45 опасность
обморожения
1018.2 1011.7
18 19.02 С 8 2800 м слаб. снег ясно -29.3 -32.7 72 -44 -43 опасность
обморожения
1020.0 1013.5 -30.3 -19.3
21 19.02 С 7 8000 м дым ясно -31.8 -35.3 71 -47 -47 опасность
обморожения
1021.7 1015.1
00 20.02 С 7 4800 м дым ясно -33.0 -36.5 71 -48 -48 опасность
обморожения
1023.7 1017.1 -33.2 -27.5
03 20.02 С 3 3600 м слаб. снег ясно -32.6 -36.2 70 -43 -43 опасность
обморожения
1025.7 1019.1
06 20.02 С 7 3600 м дым ясно -32.1 -35.6 71 -47 -47 опасность
обморожения
1026.7 1020.1 -33.4 -19.3 17
09 20.02 СЗ 5 4800 м дым ясно -33.1 -36.8 69 -47 -47 опасность
обморожения
1028.9 1022.2
12 20.02 С 2 4800 м дым ясно -33.6 -37.3 69 -40 -39 опасность
обморожения
1030.0 1023.3 -33.8 -19.3
15 20.02 С 7 4800 м дым ясно -33.0 -36.5 71 -48 -46 опасность
обморожения
1030.5 1023.8
18 20.02 С 7 4800 м дым ясно -32.1 -35.7 70 -47 -46 опасность
обморожения
1030.7 1024.0 -35.0 -31.6
21 20.02 СЗ 4 6000 м дым ясно -32.1 -35.7 70 -43 -43 опасность
обморожения
1031.4 1024.7
00 21.02 С 3 6000 м дым ясно -34.7 -38.5 68 -45 -45 опасность
обморожения
1031.6 1024.9 -35.0 -30.1
03 21.02 СВ 7 6000 м дым ясно -37.7 -41.9 65 -54 -54 опасность
обморожения
1031.5 1024.7
06 21.02 СВ 2 6000 м дым ясно -37.9 -42.1 65 -47 -47 опасность
обморожения
1031.7 1024.9 -38.8 -30.1 19
09 21.02 СВ 4 6000 м дым ясно -38.2 -42.5 64 -51 -51 опасность
обморожения
1031.0 1024.3

 

Местоположение метеостанции Grand Etang (Канада): широта 46.55 долгота -61.05 высота над уровнем моря 13 м.

В архиве по умолчанию представлена погода в Grand Etang за последнюю неделю. Архивные данные за месяц целиком и за предыдущие месяцы, начиная с января 2011 года, Вы можете получить, выбрав интересующий диапазон дат из раскрывающегося списка и нажав кнопку "Ввод!".

Внимание! Время в таблицах - всемирное. Для получения местного времени необходимо прибавить поправку, которая в Grand Etang равна -4 ч.

Смотрите также архив погоды в соседних городах и на ближайших метеорологических станциях:

Погода в Cheticamp (Канада) (13 км)
Погода в North Mountain (Канада) (42 км)
Погода в Ingonish Beach (Канада) (51 км)
Погода в East Point (Канада) (71 км)
Погода в Sydney (Канада) (88 км)
Погода в Sydney Rcs (Канада) (88 км)
Погода в St Paul Island (Канада) (103 км)
Погода в Port Hawkesbury (Канада) (103 км)
Погода в Lles de la Madelein (Канада) (111 км)
Погода в Lles de la Madelein (Канада) (111 км)

Пояснения к столбцам:

Ветер - указаны скорость ветра в м/с - средняя за 10 мин, порывы в срок и между сроками (в фигурных скобках) и направление, откуда дует ветер: С - северный, СВ - северо-восточный, В - восточный, ЮВ - юго-восточный, Ю - южный, ЮЗ - юго-западный, З - западный, СЗ - северо-западный.
Видимость - горизонтальная дальность видимости в метрах или километрах. При видимости от 1 до 10 км при отсутствии осадков обычно наблюдается дымка, при ухудшении видимости до 1 км и менее - туман. В сухую погоду видимость может ухудшаться дымом, пылью или мглою.
Явления - указаны атмосферные явления, наблюдавшиеся в срок или в последний час перед сроком; фигурными скобками обозначены явления, наблюдавшиеся между сроками (за 1-3 часа до срока); квадратными скобками обозначены град или гололедные отложения с указанием их диаметра в мм.
Облачность - указаны через наклонную черту общая и нижняя облачность в баллах и высота нижней границы облаков в метрах; квадратными скобками обозначены формы облаков: Ci - перистые, Cs - перисто-слоистые, Cc - перисто-кучевые, Ac - высококучевые, As - высокослоистые, Sc - слоисто-кучевые, Ns - слоисто-дождевые, Cu - кучевые, Cb - кучево-дождевые. Подробнее классификацию облаков см. в Атласе облаков (PDF).
T - Температура воздуха - температура, измеренная на высоте 2 м над землей.
Td - Температура точки росы - температура, при понижении до которой содержащийся в воздухе водяной пар достигнет насыщения.
f - Относительная влажность воздуха - влажноcть воздуха, измеренная на высоте 2 м над землей.
Te - Эффективная температура - температура, которую ощущает одетый по сезону человек в тени. Характеристика душности погоды. При расчете учитывается влияние влажности воздуха и скорости ветра на теплоощущения человека.
Tes - Эффективная температура на солнце - температура, которую ощущает человек, с поправкой на солнечный нагрев. Характеристика знойности погоды. Зависит от высоты солнца над горизонтом, облачности и скорости ветра. Ночью, в пасмурную погоду, а также при ветре 12 м/с и более поправка равна нулю.
P - Атмосферное давление - приведенное к уровню моря атмосферное давление.
Po - Атмосферное давление - измеренное на уровне метеостанции атмосферное давление.
Tmin - Минимальная температура - минимум температуры воздуха на высоте 2 м над землей.
Tmax - Максимальная температура - максимум температуры воздуха на высоте 2 м над землей.
R - Количество осадков - Количество выпавших осадков, мм. При наведении курсора мыши на число - период времени, за который выпало указанное количество осадков.
S - Снежный покров - Высота снежного покрова, см. При наведении курсора мыши на число - состояние снежного покрова и степень покрытия местности в баллах.